Location: Laas
(43.4693°N, 0.3073°E)
Time: 15:55:26
(UTC+00:00)

Cosmos 883 Rocket - Pass Details

Date: 25 October 2020
Orbit: 950 x 995 km, 83.0° (Epoch: 23 November)

Event Time Altitude Azimuth Distance (km) Brightness Sun altitude
Rises 18:57:05 0° 173° (S) 3,645 7.4 -22.0°
Reaches altitude 10° 18:59:37 10° 169° (S) 2,696 6.7 -22.4°
Maximum altitude 19:05:37 57° 92° (E) 1,117 4.4 -23.5°
Drops below altitude 10° 19:11:37 10° 16° (NNE) 2,690 6.7 -24.6°
Sets 19:14:09 0° 12° (NNE) 3,637 7.4 -25.1°
